Latest Coastal Weather Observations for Spring Bay

IDT60701

Issued at 8:02 pm EST Friday 19 July 2019 (issued every 10 minutes, with the page automatically refreshed every 10 minutes)

About coastal observations | Map of coastal stations | Coastal observations for TAS | Marine services | Other Formats
Station Details ID: 092133 Name: SPRING BAY NTC AWS Lat: -42.55 Lon: 147.93 Height: 0.0 m
Data from the previous 72 hours. | See also: Recent months for locations in Tasmania
Date/Time
EST
Wind Sea
Height
m
Swell Vis
km
Cloud Weather Temp
°C
Press
hPa
Rain since
9am
mm
Dir  Spd
kts
Gust
kts
Height
m
Period
s
Dir
19/08:00pm - - - - - - - - - - 11.8 1015.5 -
19/07:30pm - - - - - - - - - - 11.9 1015.3 -
19/07:00pm - - - - - - - - - - 12.1 1015.0 -
19/06:30pm - - - - - - - - - - 11.9 1014.7 -
19/06:00pm - - - - - - - - - - 11.7 1014.5 -
19/05:30pm - - - - - - - - - - 11.8 1014.1 -
19/05:00pm - - - - - - - - - - 13.0 1013.6 -
19/04:30pm - - - - - - - - - - 13.7 1013.1 -
19/04:00pm - - - - - - - - - - 14.0 1012.7 -
19/03:30pm - - - - - - - - - - 14.1 1012.1 -
19/03:00pm - - - - - - - - - - 15.2 1011.7 -
19/02:30pm - - - - - - - - - - 15.0 1011.5 -
19/02:00pm - - - - - - - - - - 14.6 1010.7 -
19/01:30pm - - - - - - - - - - 14.3 1010.5 -
19/01:00pm - - - - - - - - - - 14.3 1010.6 -
19/12:30pm - - - - - - - - - - 13.9 1010.9 -
19/12:00pm - - - - - - - - - - 13.4 1010.7 -
19/11:30am - - - - - - - - - - 12.9 1010.7 -
19/11:00am - - - - - - - - - - 12.7 1010.8 -
19/10:30am - - - - - - - - - - 12.1 1010.6 -
19/10:00am - - - - - - - - - - 11.5 1010.8 -
19/09:30am - - - - - - - - - - 11.5 1010.9 -
19/09:00am - - - - - - - - - - 10.5 1010.8 -
19/08:30am - - - - - - - - - - 9.7 1010.6 -
19/08:00am - - - - - - - - - - 8.9 1010.1 -
19/07:30am - - - - - - - - - - 9.7 1009.6 -
19/07:00am - - - - - - - - - - 9.5 1009.2 -
19/06:30am - - - - - - - - - - 9.7 1008.6 -
19/06:00am - - - - - - - - - - 9.7 1007.9 -
19/05:30am - - - - - - - - - - 9.9 1007.3 -
19/05:00am - - - - - - - - - - 9.9 1007.0 -
19/04:30am - - - - - - - - - - 9.9 1006.8 -
19/04:00am - - - - - - - - - - 9.6 1006.4 -
19/03:30am - - - - - - - - - - 10.1 1005.9 -
19/03:00am - - - - - - - - - - 10.2 1005.6 -
19/02:30am - - - - - - - - - - 10.3 1005.2 -
19/02:00am - - - - - - - - - - 11.1 1004.8 -
19/01:30am - - - - - - - - - - 11.4 1003.9 -
19/01:00am - - - - - - - - - - 12.0 1002.9 -
19/12:30am - - - - - - - - - - 12.3 1002.1 -
19/12:00am - - - - - - - - - - 11.5 1001.8 -
 
Date/Time
EST
Wind Sea
Height
m
Swell Vis
km
Cloud Weather Temp
°C
Press
hPa
Rain since
9am
mm
Dir  Spd
kts
Gust
kts
Height
m
Period
s
Dir
18/11:30pm - - - - - - - - - - 11.6 1001.5 -
18/11:00pm - - - - - - - - - - 11.8 1001.9 -
18/10:30pm - - - - - - - - - - 11.6 1002.3 -
18/10:00pm - - - - - - - - - - 11.5 1002.4 -
18/09:30pm - - - - - - - - - - 11.4 1002.8 -
18/09:00pm - - - - - - - - - - 11.0 1003.5 -
18/08:30pm - - - - - - - - - - 10.9 1003.9 -
18/08:00pm - - - - - - - - - - 10.7 1004.3 -
18/07:30pm - - - - - - - - - - 10.7 1004.4 -
18/07:00pm - - - - - - - - - - 10.6 1004.6 -
18/06:30pm - - - - - - - - - - 10.3 1005.3 -
18/06:00pm - - - - - - - - - - 10.5 1005.6 -
18/05:30pm - - - - - - - - - - 10.6 1006.0 -
18/05:00pm - - - - - - - - - - 10.4 1006.2 -
18/04:30pm - - - - - - - - - - 10.6 1006.7 -
18/04:00pm - - - - - - - - - - 10.8 1006.5 -
18/03:30pm - - - - - - - - - - 11.4 1006.8 -
18/03:00pm - - - - - - - - - - 11.9 1006.9 -
18/02:30pm - - - - - - - - - - 11.7 1007.2 -
18/02:00pm - - - - - - - - - - 12.0 1007.3 -
18/01:30pm - - - - - - - - - - 11.9 1007.6 -
18/01:00pm - - - - - - - - - - 11.4 1008.3 -
18/12:30pm - - - - - - - - - - 11.4 1008.5 -
18/12:00pm - - - - - - - - - - 11.3 1008.7 -
18/11:30am - - - - - - - - - - 11.0 1009.1 -
18/11:00am - - - - - - - - - - 10.7 1009.5 -
18/10:30am - - - - - - - - - - 10.8 1009.7 -
18/10:00am - - - - - - - - - - 10.6 1009.7 -
18/09:30am - - - - - - - - - - 10.9 1009.6 -
18/09:00am - - - - - - - - - - 9.9 1009.6 -
18/08:30am - - - - - - - - - - 9.3 1009.5 -
18/08:00am - - - - - - - - - - 9.2 1008.7 -
18/07:30am - - - - - - - - - - 9.0 1008.7 -
18/07:00am - - - - - - - - - - 9.1 1008.4 -
18/06:30am - - - - - - - - - - 8.8 1008.1 -
18/06:00am - - - - - - - - - - 9.1 1006.9 -
18/05:30am - - - - - - - - - - 9.2 1006.0 -
18/05:00am - - - - - - - - - - 9.2 1006.0 -
18/04:30am - - - - - - - - - - 9.0 1005.9 -
18/04:00am - - - - - - - - - - 8.9 1005.5 -
18/03:30am - - - - - - - - - - 8.8 1005.0 -
18/03:00am - - - - - - - - - - 8.7 1004.6 -
18/02:30am - - - - - - - - - - 8.7 1004.4 -
18/02:00am - - - - - - - - - - 8.7 1003.8 -
18/01:30am - - - - - - - - - - 8.9 1003.1 -
18/01:00am - - - - - - - - - - 8.7 1002.5 -
18/12:30am - - - - - - - - - - 8.6 1002.3 -
18/12:00am - - - - - - - - - - 8.6 1001.5 -
 
Date/Time
EST
Wind Sea
Height
m
Swell Vis
km
Cloud Weather Temp
°C
Press
hPa
Rain since
9am
mm
Dir  Spd
kts
Gust
kts
Height
m
Period
s
Dir
17/11:30pm - - - - - - - - - - 8.6 1001.6 -
17/11:00pm - - - - - - - - - - 8.2 1000.9 -
17/10:30pm - - - - - - - - - - 8.3 1000.6 -
17/10:00pm - - - - - - - - - - 8.0 999.7 -
17/09:30pm - - - - - - - - - - 8.7 999.6 -
17/09:00pm - - - - - - - - - - 8.8 999.0 -
17/08:30pm - - - - - - - - - - 9.0 998.7 -
17/08:00pm - - - - - - - - - - 9.2 998.9 -
17/07:30pm - - - - - - - - - - 9.2 998.6 -
17/07:00pm - - - - - - - - - - 9.8 998.4 -
17/06:30pm - - - - - - - - - - 10.2 998.2 -
17/06:00pm - - - - - - - - - - 10.4 997.7 -
17/05:30pm - - - - - - - - - - 10.4 997.2 -
17/05:00pm - - - - - - - - - - 10.9 997.6 -
17/04:30pm - - - - - - - - - - 11.4 997.5 -
17/04:00pm - - - - - - - - - - 11.3 997.0 -
17/03:30pm - - - - - - - - - - 12.0 996.5 -
17/03:00pm - - - - - - - - - - 12.3 996.6 -
17/02:30pm - - - - - - - - - - 13.0 996.5 -
17/02:00pm - - - - - - - - - - 13.9 997.2 -
17/01:30pm - - - - - - - - - - 14.1 996.4 -
17/01:00pm - - - - - - - - - - 13.0 996.8 -
17/12:30pm - - - - - - - - - - 12.4 997.9 -
17/12:00pm - - - - - - - - - - 11.9 998.7 -
17/11:30am - - - - - - - - - - 11.8 999.5 -
17/11:00am - - - - - - - - - - 11.5 1000.6 -
17/10:30am - - - - - - - - - - 11.1 1001.2 -
17/10:00am - - - - - - - - - - 10.7 1001.8 -
17/09:30am - - - - - - - - - - 10.7 1002.4 -
17/09:00am - - - - - - - - - - 11.3 1003.0 -
17/08:30am - - - - - - - - - - 11.2 1003.3 -
17/08:00am - - - - - - - - - - 10.9 1003.8 -
17/07:30am - - - - - - - - - - 11.0 1003.9 -
17/07:00am - - - - - - - - - - 12.1 1003.9 -
17/06:30am - - - - - - - - - - 12.4 1004.2 -
17/06:00am - - - - - - - - - - 12.2 1004.7 -
17/05:30am - - - - - - - - - - 12.4 1004.8 -
17/05:00am - - - - - - - - - - 12.6 1004.8 -
17/04:30am - - - - - - - - - - 12.5 1005.4 -
17/04:00am - - - - - - - - - - 12.5 1006.0 -
17/03:30am - - - - - - - - - - 12.4 1006.8 -
17/03:00am - - - - - - - - - - 12.3 1007.1 -
17/02:30am - - - - - - - - - - 12.3 1007.5 -
17/02:00am - - - - - - - - - - 12.5 1007.4 -
17/01:30am - - - - - - - - - - 12.7 1007.7 -
17/01:00am - - - - - - - - - - 12.5 1007.8 -
17/12:30am - - - - - - - - - - 12.2 1008.1 -
17/12:00am - - - - - - - - - - 12.5 1008.4 -
 
Date/Time
EST
Wind Sea
Height
m
Swell Vis
km
Cloud Weather Temp
°C
Press
hPa
Rain since
9am
mm
Dir  Spd
kts
Gust
kts
Height
m
Period
s
Dir
16/11:30pm - - - - - - - - - - 12.4 1008.9 -
16/11:00pm - - - - - - - - - - 12.5 1009.3 -
16/10:30pm - - - - - - - - - - 12.5 1009.4 -
16/10:00pm - - - - - - - - - - 12.2 1009.7 -
16/09:30pm - - - - - - - - - - 12.2 1009.7 -
16/09:00pm - - - - - - - - - - 12.5 1009.8 -
16/08:30pm - - - - - - - - - - 11.7 1009.9 -

Other formats

Comma delimited format used in spreadsheet applications
http://www.bom.gov.au/fwo/IDT60701/IDT60701.95987.axf

JavaScript Object Notation format (JSON) in row-major order
http://www.bom.gov.au/fwo/IDT60701/IDT60701.95987.json

Data quality

Most of these data are generated automatically and are frequently updated. Quality checks on data are not normally performed. It is possible for incorrect values to appear. Refer to information at About Latest Weather Observations and please check the disclaimer before using these data.